• In Österreich
  • Länderverzeichnis
  • Für 7 Tage
  • Wassertemperatur
  • Satellitenkarten
  • Wetterkarte
  • News
  • Widgets
  • user-avatar
    Anmelden

    Stündliche Wetter Kahamlyk

    Heute, 19 August, Sonntag

    Zeit Temperatur Niederschläge Wind Luftdruck Luftfeuchtigkeit
    00:00 +20°C° 0 mm 3 m/S 756 mmHg 64%
    01:00 +19°C° 0 mm 3 m/S 756 mmHg 65%
    02:00 +19°C° 0 mm 3 m/S 756 mmHg 66%
    03:00 +18°C° 0 mm 2 m/S 756 mmHg 67%
    04:00 +18°C° 0 mm 2 m/S 756 mmHg 68%
    05:00 +17°C° 0 mm 2 m/S 756 mmHg 68%
    06:00 +19°C° 0 mm 2 m/S 756 mmHg 63%
    07:00 +21°C° 0 mm 3 m/S 756 mmHg 57%
    08:00 +24°C° 0 mm 3 m/S 757 mmHg 51%
    09:00 +26°C° 0 mm 3 m/S 757 mmHg 46%
    10:00 +27°C° 0 mm 3 m/S 756 mmHg 42%
    11:00 +29°C° 0 mm 3 m/S 756 mmHg 37%
    12:00 +29°C° 0 mm 3 m/S 756 mmHg 35%
    13:00 +30°C° 0 mm 3 m/S 756 mmHg 32%
    14:00 +31°C° 0 mm 2 m/S 756 mmHg 30%
    15:00 +30°C° 0 mm 2 m/S 755 mmHg 30%
    16:00 +30°C° 0 mm 2 m/S 755 mmHg 31%
    17:00 +30°C° 0 mm 1 m/S 755 mmHg 31%
    18:00 +28°C° 0 mm 1 m/S 755 mmHg 34%
    19:00 +26°C° 0 mm 2 m/S 755 mmHg 37%
    20:00 +24°C° 0 mm 2 m/S 755 mmHg 40%
    21:00 +24°C° 0 mm 2 m/S 755 mmHg 42%
    22:00 +23°C° 0 mm 2 m/S 755 mmHg 43%
    23:00 +21°C° 0 mm 3 m/S 755 mmHg 44%

    Morgen, 20 August, Montag

    Zeit Temperatur Niederschläge Wind Luftdruck Luftfeuchtigkeit
    00:00 +21°C° 0 mm 2 m/S 755 mmHg 44%
    01:00 +20°C° 0 mm 2 m/S 755 mmHg 44%
    02:00 +20°C° 0 mm 2 m/S 755 mmHg 44%
    03:00 +19°C° 0 mm 2 m/S 755 mmHg 45%
    04:00 +19°C° 0 mm 2 m/S 755 mmHg 45%
    05:00 +18°C° 0 mm 2 m/S 755 mmHg 45%
    06:00 +20°C° 0 mm 2 m/S 755 mmHg 43%
    07:00 +23°C° 0 mm 2 m/S 755 mmHg 40%
    08:00 +25°C° 0 mm 2 m/S 756 mmHg 38%
    09:00 +27°C° 0 mm 2 m/S 756 mmHg 35%
    10:00 +28°C° 0 mm 3 m/S 755 mmHg 31%
    11:00 +30°C° 0 mm 3 m/S 755 mmHg 28%
    12:00 +30°C° 0 mm 3 m/S 755 mmHg 27%
    13:00 +31°C° 0 mm 2 m/S 755 mmHg 26%
    14:00 +31°C° 0 mm 2 m/S 754 mmHg 25%
    15:00 +31°C° 0 mm 2 m/S 754 mmHg 26%
    16:00 +31°C° 0 mm 2 m/S 754 mmHg 27%
    17:00 +30°C° 0 mm 1 m/S 754 mmHg 28%
    18:00 +29°C° 0 mm 1 m/S 754 mmHg 30%
    19:00 +27°C° 0 mm 2 m/S 754 mmHg 32%
    20:00 +25°C° 0 mm 2 m/S 754 mmHg 34%
    21:00 +24°C° 0 mm 2 m/S 754 mmHg 35%
    22:00 +23°C° 0 mm 2 m/S 754 mmHg 36%
    23:00 +23°C° 0 mm 2 m/S 754 mmHg 36%

    übermorgen, 21 August, Dienstag

    Zeit Temperatur Niederschläge Wind Luftdruck Luftfeuchtigkeit
    00:00 +21°C° 0 mm 2 m/S 754 mmHg 37%
    01:00 +21°C° 0 mm 2 m/S 753 mmHg 37%
    02:00 +21°C° 0 mm 2 m/S 753 mmHg 37%
    03:00 +20°C° 0 mm 2 m/S 753 mmHg 37%
    04:00 +20°C° 0 mm 2 m/S 753 mmHg 37%
    05:00 +20°C° 0 mm 2 m/S 753 mmHg 37%
    06:00 +23°C° 0 mm 2 m/S 753 mmHg 35%
    07:00 +24°C° 0 mm 3 m/S 753 mmHg 34%
    08:00 +26°C° 0 mm 3 m/S 753 mmHg 32%
    09:00 +28°C° 0 mm 3 m/S 753 mmHg 31%
    10:00 +29°C° 0 mm 3 m/S 753 mmHg 29%
    11:00 +31°C° 0 mm 3 m/S 753 mmHg 28%
    12:00 +33°C° 0 mm 3 m/S 752 mmHg 29%
    13:00 +33°C° 0 mm 4 m/S 752 mmHg 30%
    14:00 +33°C° 0 mm 4 m/S 752 mmHg 32%
    15:00 +33°C° 0 mm 4 m/S 752 mmHg 35%
    16:00 +32°C° 0 mm 4 m/S 751 mmHg 38%
    17:00 +32°C° 0 mm 4 m/S 751 mmHg 41%
    18:00 +29°C° 0,1 mm 3 m/S 751 mmHg 47%
    19:00 +27°C° 0,1 mm 3 m/S 752 mmHg 53%
    20:00 +26°C° 0,1 mm 3 m/S 752 mmHg 59%
    21:00 +25°C° 0,1 mm 3 m/S 752 mmHg 65%
    22:00 +24°C° 0,1 mm 3 m/S 752 mmHg 71%
    23:00 +22°C° 0,1 mm 3 m/S 753 mmHg 78%

    22 August, Mittwoch

    Zeit Temperatur Niederschläge Wind Luftdruck Luftfeuchtigkeit
    00:00 +21°C° 0 mm 3 m/S 753 mmHg 80%
    01:00 +20°C° 0 mm 3 m/S 753 mmHg 83%
    02:00 +19°C° 0 mm 3 m/S 753 mmHg 85%
    03:00 +19°C° 0 mm 3 m/S 754 mmHg 86%
    04:00 +18°C° 0 mm 3 m/S 754 mmHg 86%
    05:00 +17°C° 0 mm 3 m/S 754 mmHg 87%
    06:00 +19°C° 0 mm 4 m/S 755 mmHg 79%
    07:00 +20°C° 0 mm 4 m/S 755 mmHg 70%
    08:00 +21°C° 0 mm 4 m/S 756 mmHg 62%
    09:00 +22°C° 0 mm 5 m/S 756 mmHg 55%
    10:00 +25°C° 0 mm 5 m/S 756 mmHg 48%
    11:00 +26°C° 0 mm 5 m/S 756 mmHg 41%
    12:00 +26°C° 0 mm 5 m/S 756 mmHg 40%
    13:00 +27°C° 0 mm 5 m/S 756 mmHg 38%
    14:00 +27°C° 0 mm 5 m/S 756 mmHg 36%
    15:00 +27°C° 0 mm 4 m/S 756 mmHg 37%
    16:00 +26°C° 0 mm 4 m/S 756 mmHg 38%
    17:00 +26°C° 0 mm 4 m/S 757 mmHg 39%
    18:00 +23°C° 0 mm 4 m/S 757 mmHg 44%
    19:00 +21°C° 0 mm 3 m/S 757 mmHg 49%
    20:00 +20°C° 0 mm 3 m/S 758 mmHg 54%
    21:00 +19°C° 0 mm 3 m/S 758 mmHg 56%
    22:00 +18°C° 0 mm 3 m/S 758 mmHg 57%
    23:00 +17°C° 0 mm 2 m/S 758 mmHg 59%

    23 August, Donnerstag

    Zeit Temperatur Niederschläge Wind Luftdruck Luftfeuchtigkeit
    00:00 +17°C° 0 mm 2 m/S 758 mmHg 61%
    01:00 +16°C° 0 mm 2 m/S 758 mmHg 62%
    02:00 +16°C° 0 mm 2 m/S 759 mmHg 63%
    03:00 +15°C° 0 mm 2 m/S 759 mmHg 65%
    04:00 +15°C° 0 mm 2 m/S 759 mmHg 66%
    05:00 +15°C° 0 mm 2 m/S 759 mmHg 67%
    06:00 +16°C° 0 mm 3 m/S 759 mmHg 61%
    07:00 +18°C° 0 mm 3 m/S 759 mmHg 54%
    08:00 +20°C° 0 mm 3 m/S 759 mmHg 48%
    09:00 +21°C° 0 mm 3 m/S 759 mmHg 43%
    10:00 +24°C° 0 mm 3 m/S 759 mmHg 39%
    11:00 +25°C° 0 mm 4 m/S 759 mmHg 34%
    12:00 +26°C° 0 mm 4 m/S 758 mmHg 32%
    13:00 +26°C° 0 mm 4 m/S 758 mmHg 30%
    14:00 +27°C° 0 mm 4 m/S 757 mmHg 28%
    15:00 +27°C° 0 mm 3 m/S 757 mmHg 29%
    16:00 +26°C° 0 mm 3 m/S 757 mmHg 30%
    17:00 +26°C° 0 mm 3 m/S 757 mmHg 31%
    18:00 +24°C° 0 mm 3 m/S 757 mmHg 36%
    19:00 +21°C° 0 mm 3 m/S 757 mmHg 40%
    20:00 +19°C° 0 mm 3 m/S 757 mmHg 45%
    21:00 +19°C° 0 mm 3 m/S 757 mmHg 47%
    22:00 +18°C° 0 mm 3 m/S 757 mmHg 49%
    23:00 +17°C° 0 mm 4 m/S 757 mmHg 51%

    24 August, Freitag

    Zeit Temperatur Niederschläge Wind Luftdruck Luftfeuchtigkeit
    00:00 +17°C° 0 mm 4 m/S 757 mmHg 52%
    01:00 +16°C° 0 mm 3 m/S 757 mmHg 54%
    02:00 +16°C° 0 mm 3 m/S 757 mmHg 55%
    03:00 +14°C° 0 mm 3 m/S 757 mmHg 55%
    04:00 +14°C° 0 mm 3 m/S 757 mmHg 55%
    05:00 +13°C° 0 mm 3 m/S 757 mmHg 55%
    06:00 +16°C° 0 mm 3 m/S 757 mmHg 51%
    07:00 +18°C° 0 mm 4 m/S 757 mmHg 47%
    08:00 +20°C° 0 mm 4 m/S 757 mmHg 43%
    09:00 +22°C° 0 mm 4 m/S 756 mmHg 38%
    10:00 +25°C° 0 mm 4 m/S 756 mmHg 33%
    11:00 +27°C° 0 mm 5 m/S 756 mmHg 28%
    12:00 +28°C° 0 mm 4 m/S 755 mmHg 27%
    13:00 +28°C° 0 mm 4 m/S 755 mmHg 25%
    14:00 +29°C° 0 mm 4 m/S 755 mmHg 24%
    15:00 +29°C° 0 mm 4 m/S 754 mmHg 26%
    16:00 +28°C° 0 mm 3 m/S 754 mmHg 28%
    17:00 +28°C° 0 mm 3 m/S 754 mmHg 30%
    18:00 +26°C° 0 mm 3 m/S 754 mmHg 34%
    19:00 +23°C° 0 mm 4 m/S 754 mmHg 38%
    20:00 +21°C° 0 mm 4 m/S 754 mmHg 42%
    21:00 +21°C° 0 mm 4 m/S 754 mmHg 42%
    22:00 +20°C° 0 mm 4 m/S 754 mmHg 43%
    23:00 +19°C° 0 mm 4 m/S 753 mmHg 43%
    Mehr zeigen